Regional Weather Roundup
Issued by NWS

Home | Current Version | Previous Version | Text Only | Print | Product List | Glossary On
Versions: 1 2 3 4 5 6 7 8 9 10 11 12 13 14 15 16 17 18 19 20 21 22 23 24 25 26 27 28 29 30 31 32 33 34 35 36 37 38 39 40 41 42 43 44 45 46 47 48 49 50
000
ASUS43 KBIS 012110
RWRND

NORTH DAKOTA REGIONAL WEATHER ROUNDUP
NATIONAL WEATHER SERVICE BISMARCK ND
300 PM CST WED MAR 01 2017

NOTE: "FAIR" INDICATES FEW OR NO CLOUDS BELOW 12,000 FEET WITH NO
SIGNIFICANT WEATHER AND/OR OBSTRUCTIONS TO VISIBILITY.


NDZ001>003-009>011-017-012200-
NORTHWEST NORTH DAKOTA

CITY           SKY/WX    TMP DP  RH WIND       PRES   REMARKS
WILLISTON      PTSUNNY   24  13  62 CALM      30.07F
MINOT          FAIR      21  12  68 N7        30.10S WCI  12
MINOT AFB      SUNNY     18  11  75 N6        30.10S WCI  10
$$

NDZ018>021-031>035-040>046-012200-
SOUTHWEST NORTH DAKOTA

CITY           SKY/WX    TMP DP  RH WIND       PRES   REMARKS
BISMARCK       FAIR      28  15  58 N8        30.11F WCI  20
DICKINSON      CLOUDY    25  17  72 W7        30.01F WCI  17
GARRISON         N/A     20  12  71 N5        30.10S WCI  13
HETTINGER ARPT CLOUDY    36  14  40 W18G29    30.02F
$$

NDZ004>008-012>016-024-026-027-054-012200-
NORTHEAST NORTH DAKOTA

CITY           SKY/WX    TMP DP  RH WIND       PRES   REMARKS
GRAND FORKS    PTSUNNY   24   9  52 N15       30.10R WCI  11
GRND FRKS AFB  MOSUNNY   22  11  63 NW13      30.10R WCI  10
DEVILS LAKE    FAIR      15  10  80 NW14      30.10R WCI   0
$$

NDZ022-023-025-028>030-036>039-047>053-012200-
SOUTHEAST NORTH DAKOTA

CITY           SKY/WX    TMP DP  RH WIND       PRES   REMARKS
FARGO          CLOUDY    25  15  66 NW20      30.09R WCI  11
JAMESTOWN      CLOUDY    21  13  71 NW18      30.08S WCI   6
$$





USA.gov is the U.S. government's official web portal to all federal, state and local government web resources and services.